Year,Month,Day,Hour,Minute,Value (Times are PST for windgust in km/hr)
2021,08,09,00,00,4.80
2021,08,09,00,01,6.40
2021,08,09,00,02,6.40
2021,08,09,00,03,6.40
2021,08,09,00,04,6.40
2021,08,09,00,05,8.10
2021,08,09,00,06,8.10
2021,08,09,00,07,9.60
2021,08,09,00,08,12.90
2021,08,09,00,09,6.40
2021,08,09,00,10,6.40
2021,08,09,00,11,6.40
2021,08,09,00,12,8.10
2021,08,09,00,13,12.90
2021,08,09,00,14,6.40
2021,08,09,00,15,8.10
2021,08,09,00,16,6.40
2021,08,09,00,17,6.40
2021,08,09,00,18,3.20
2021,08,09,00,19,6.40
2021,08,09,00,20,8.10
2021,08,09,00,21,4.80
2021,08,09,00,22,4.80
2021,08,09,00,23,1.60
2021,08,09,00,24,3.20
2021,08,09,00,25,4.80
2021,08,09,00,26,6.40
2021,08,09,00,27,4.80
2021,08,09,00,28,4.80
2021,08,09,00,29,3.20
2021,08,09,00,30,4.80
2021,08,09,00,31,3.20
2021,08,09,00,32,4.80
2021,08,09,00,33,1.60
2021,08,09,00,34,1.60
2021,08,09,00,35,3.20
2021,08,09,00,36,3.20
2021,08,09,00,37,3.20
2021,08,09,00,38,3.20
2021,08,09,00,39,4.80
2021,08,09,00,40,4.80
2021,08,09,00,41,3.20
2021,08,09,00,42,3.20
2021,08,09,00,44,3.20
2021,08,09,00,45,3.20
2021,08,09,00,46,6.40
2021,08,09,00,47,1.60
2021,08,09,00,52,3.20
2021,08,09,00,53,3.20
2021,08,09,01,01,1.60
2021,08,09,01,08,3.20
2021,08,09,01,11,1.60
2021,08,09,01,12,1.60
2021,08,09,01,14,3.20
2021,08,09,01,15,1.60
2021,08,09,01,16,1.60
2021,08,09,01,17,1.60
2021,08,09,01,18,3.20
2021,08,09,01,19,3.20
2021,08,09,01,20,4.80
2021,08,09,01,21,3.20
2021,08,09,01,22,1.60
2021,08,09,01,23,4.80
2021,08,09,01,25,4.80
2021,08,09,01,26,4.80
2021,08,09,01,27,1.60
2021,08,09,01,28,3.20
2021,08,09,01,29,3.20
2021,08,09,01,30,4.80
2021,08,09,01,31,4.80
2021,08,09,01,32,4.80
2021,08,09,01,33,3.20
2021,08,09,01,34,4.80
2021,08,09,01,36,4.80
2021,08,09,01,37,3.20
2021,08,09,01,38,3.20
2021,08,09,01,39,4.80
2021,08,09,01,40,3.20
2021,08,09,01,41,3.20
2021,08,09,01,42,3.20
2021,08,09,01,43,3.20
2021,08,09,01,44,4.80
2021,08,09,01,45,4.80
2021,08,09,01,46,6.40
2021,08,09,01,47,6.40
2021,08,09,01,48,4.80
2021,08,09,01,49,6.40
2021,08,09,01,50,1.60
2021,08,09,01,51,3.20
2021,08,09,01,52,3.20
2021,08,09,01,53,3.20
2021,08,09,01,54,1.60
2021,08,09,01,55,6.40
2021,08,09,01,56,6.40
2021,08,09,01,57,4.80
2021,08,09,01,58,3.20
2021,08,09,01,59,4.80
2021,08,09,02,00,3.20
2021,08,09,02,02,4.80
2021,08,09,02,03,6.40
2021,08,09,02,04,6.40
2021,08,09,02,07,4.80
2021,08,09,02,08,6.40
2021,08,09,02,09,4.80
2021,08,09,02,10,1.60
2021,08,09,02,11,3.20
2021,08,09,02,12,4.80
2021,08,09,02,13,4.80
2021,08,09,02,14,3.20
2021,08,09,02,15,3.20
2021,08,09,04,26,1.60
2021,08,09,04,28,1.60
2021,08,09,04,40,3.20
2021,08,09,04,42,3.20
2021,08,09,04,43,4.80
2021,08,09,04,44,3.20
2021,08,09,04,50,3.20
2021,08,09,04,51,3.20
2021,08,09,04,54,3.20
2021,08,09,04,56,1.60
2021,08,09,05,00,4.80
2021,08,09,05,01,4.80
2021,08,09,05,02,1.60
2021,08,09,08,23,3.20
2021,08,09,08,24,3.20
2021,08,09,08,25,3.20
2021,08,09,08,26,1.60
2021,08,09,08,27,1.60
2021,08,09,08,28,3.20
2021,08,09,08,29,3.20
2021,08,09,08,30,3.20
2021,08,09,08,31,3.20
2021,08,09,08,32,1.60
2021,08,09,08,33,1.60
2021,08,09,08,34,4.80
2021,08,09,08,35,4.80
2021,08,09,08,36,3.20
2021,08,09,08,37,3.20
2021,08,09,08,38,3.20
2021,08,09,08,39,3.20
2021,08,09,08,40,3.20
2021,08,09,08,41,1.60
2021,08,09,08,42,3.20
2021,08,09,08,43,4.80
2021,08,09,08,44,1.60
2021,08,09,08,45,1.60
2021,08,09,08,46,1.60
2021,08,09,08,49,1.60
2021,08,09,08,50,3.20
2021,08,09,08,51,4.80
2021,08,09,08,52,6.40
2021,08,09,08,53,1.60
2021,08,09,08,54,1.60
2021,08,09,08,55,8.10
2021,08,09,08,56,3.20
2021,08,09,08,57,6.40
2021,08,09,08,58,6.40
2021,08,09,08,59,8.10
2021,08,09,09,00,3.20
2021,08,09,09,01,1.60
2021,08,09,09,02,3.20
2021,08,09,09,03,6.40
2021,08,09,09,04,9.60
2021,08,09,09,05,3.20
2021,08,09,09,06,6.40
2021,08,09,09,07,8.10
2021,08,09,09,08,6.40
2021,08,09,09,09,3.20
2021,08,09,09,10,6.40
2021,08,09,09,11,8.10
2021,08,09,09,12,3.20
2021,08,09,09,13,8.10
2021,08,09,09,14,9.60
2021,08,09,09,15,9.60
2021,08,09,09,16,8.10
2021,08,09,09,17,8.10
2021,08,09,09,18,8.10
2021,08,09,09,19,3.20
2021,08,09,09,20,6.40
2021,08,09,09,21,6.40
2021,08,09,09,22,6.40
2021,08,09,09,23,9.60
2021,08,09,09,24,6.40
2021,08,09,09,25,3.20
2021,08,09,09,26,4.80
2021,08,09,09,27,4.80
2021,08,09,09,28,3.20
2021,08,09,09,29,1.60
2021,08,09,09,30,4.80
2021,08,09,09,31,3.20
2021,08,09,09,32,1.60
2021,08,09,09,34,4.80
2021,08,09,09,35,4.80
2021,08,09,09,36,3.20
2021,08,09,09,37,4.80
2021,08,09,09,38,3.20
2021,08,09,09,39,4.80
2021,08,09,09,40,1.60
2021,08,09,09,41,3.20
2021,08,09,09,42,3.20
2021,08,09,09,43,4.80
2021,08,09,09,44,4.80
2021,08,09,09,45,9.60
2021,08,09,09,46,6.40
2021,08,09,09,47,3.20
2021,08,09,09,48,3.20
2021,08,09,09,49,4.80
2021,08,09,09,50,3.20
2021,08,09,09,51,4.80
2021,08,09,09,52,6.40
2021,08,09,09,53,6.40
2021,08,09,09,54,8.10
2021,08,09,09,55,8.10
2021,08,09,09,56,8.10
2021,08,09,09,57,4.80
2021,08,09,09,58,9.60
2021,08,09,09,59,8.10
2021,08,09,10,00,8.10
2021,08,09,10,01,6.40
2021,08,09,10,02,3.20
2021,08,09,10,03,6.40
2021,08,09,10,04,6.40
2021,08,09,10,05,3.20
2021,08,09,10,06,4.80
2021,08,09,10,07,4.80
2021,08,09,10,08,4.80
2021,08,09,10,09,6.40
2021,08,09,10,10,8.10
2021,08,09,10,11,6.40
2021,08,09,10,12,4.80
2021,08,09,10,13,6.40
2021,08,09,10,14,4.80
2021,08,09,10,15,3.20
2021,08,09,10,16,3.20
2021,08,09,10,17,6.40
2021,08,09,10,18,4.80
2021,08,09,10,19,4.80
2021,08,09,10,20,6.40
2021,08,09,10,21,4.80
2021,08,09,10,22,1.60
2021,08,09,10,23,3.20
2021,08,09,10,24,4.80
2021,08,09,10,25,3.20
2021,08,09,10,26,4.80
2021,08,09,10,27,4.80
2021,08,09,10,28,4.80
2021,08,09,10,29,6.40
2021,08,09,10,30,6.40
2021,08,09,10,31,6.40
2021,08,09,10,32,9.60
2021,08,09,10,33,8.10
2021,08,09,10,34,8.10
2021,08,09,10,35,6.40
2021,08,09,10,36,4.80
2021,08,09,10,37,3.20
2021,08,09,10,38,3.20
2021,08,09,10,39,6.40
2021,08,09,10,40,9.60
2021,08,09,10,41,6.40
2021,08,09,10,42,3.20
2021,08,09,10,43,6.40
2021,08,09,10,44,6.40
2021,08,09,10,45,6.40
2021,08,09,10,46,6.40
2021,08,09,10,47,6.40
2021,08,09,10,48,8.10
2021,08,09,10,49,4.80
2021,08,09,10,50,9.60
2021,08,09,10,51,9.60
2021,08,09,10,52,11.30
2021,08,09,10,53,9.60
2021,08,09,10,54,6.40
2021,08,09,10,55,9.60
2021,08,09,10,56,4.80
2021,08,09,10,57,6.40
2021,08,09,10,58,1.60
2021,08,09,10,59,4.80
2021,08,09,11,00,8.10
2021,08,09,11,01,6.40
2021,08,09,11,02,8.10
2021,08,09,11,03,3.20
2021,08,09,11,04,3.20
2021,08,09,11,05,9.60
2021,08,09,11,06,8.10
2021,08,09,11,07,8.10
2021,08,09,11,08,6.40
2021,08,09,11,09,11.30
2021,08,09,11,10,8.10
2021,08,09,11,11,8.10
2021,08,09,11,12,8.10
2021,08,09,11,13,6.40
2021,08,09,11,14,4.80
2021,08,09,11,15,8.10
2021,08,09,11,16,8.10
2021,08,09,11,17,8.10
2021,08,09,11,18,6.40
2021,08,09,11,19,8.10
2021,08,09,11,20,8.10
2021,08,09,11,21,4.80
2021,08,09,11,22,8.10
2021,08,09,11,23,6.40
2021,08,09,11,24,9.60
2021,08,09,11,25,6.40
2021,08,09,11,26,3.20
2021,08,09,11,27,11.30
2021,08,09,11,28,9.60
2021,08,09,11,29,4.80
2021,08,09,11,30,4.80
2021,08,09,11,31,4.80
2021,08,09,11,32,3.20
2021,08,09,11,33,3.20
2021,08,09,11,34,6.40
2021,08,09,11,35,9.60
2021,08,09,11,36,8.10
2021,08,09,11,37,6.40
2021,08,09,11,38,8.10
2021,08,09,11,39,4.80
2021,08,09,11,40,1.60
2021,08,09,11,41,8.10
2021,08,09,11,42,8.10
2021,08,09,11,43,6.40
2021,08,09,11,44,4.80
2021,08,09,11,45,6.40
2021,08,09,11,46,6.40
2021,08,09,11,47,11.30
2021,08,09,11,48,8.10
2021,08,09,11,49,6.40
2021,08,09,11,50,4.80
2021,08,09,11,51,6.40
2021,08,09,11,52,6.40
2021,08,09,11,53,8.10
2021,08,09,11,54,4.80
2021,08,09,11,55,4.80
2021,08,09,11,56,4.80
2021,08,09,11,57,1.60
2021,08,09,11,58,8.10
2021,08,09,11,59,6.40
2021,08,09,12,00,6.40
2021,08,09,12,01,9.60
2021,08,09,12,02,8.10
2021,08,09,12,03,6.40
2021,08,09,12,04,11.30
2021,08,09,12,05,9.60
2021,08,09,12,06,9.60
2021,08,09,12,07,9.60
2021,08,09,12,08,6.40
2021,08,09,12,09,11.30
2021,08,09,12,10,8.10
2021,08,09,12,11,6.40
2021,08,09,12,12,9.60
2021,08,09,12,13,11.30
2021,08,09,12,14,8.10
2021,08,09,12,15,8.10
2021,08,09,12,16,6.40
2021,08,09,12,17,9.60
2021,08,09,12,18,6.40
2021,08,09,12,19,4.80
2021,08,09,12,20,4.80
2021,08,09,12,21,9.60
2021,08,09,12,22,8.10
2021,08,09,12,23,6.40
2021,08,09,12,24,6.40
2021,08,09,12,25,6.40
2021,08,09,12,26,6.40
2021,08,09,12,27,9.60
2021,08,09,12,28,8.10
2021,08,09,12,29,8.10
2021,08,09,12,30,8.10
2021,08,09,12,31,6.40
2021,08,09,12,32,4.80
2021,08,09,12,33,8.10
2021,08,09,12,34,6.40
2021,08,09,12,35,6.40
2021,08,09,12,36,9.60
2021,08,09,12,37,9.60
2021,08,09,12,38,8.10
2021,08,09,12,39,8.10
2021,08,09,12,40,9.60
2021,08,09,12,41,8.10
2021,08,09,12,42,9.60
2021,08,09,12,43,8.10
2021,08,09,12,44,8.10
2021,08,09,12,45,6.40
2021,08,09,12,46,8.10
2021,08,09,12,47,8.10
2021,08,09,12,48,6.40
2021,08,09,12,49,11.30
2021,08,09,12,50,8.10
2021,08,09,12,51,6.40
2021,08,09,12,52,6.40
2021,08,09,12,53,4.80
2021,08,09,12,54,11.30
2021,08,09,12,55,11.30
2021,08,09,12,56,11.30
2021,08,09,12,57,9.60
2021,08,09,12,58,6.40
2021,08,09,12,59,6.40
2021,08,09,13,00,11.30
2021,08,09,13,01,9.60
2021,08,09,13,02,8.10
2021,08,09,13,03,8.10
2021,08,09,13,04,8.10
2021,08,09,13,05,8.10
2021,08,09,13,06,8.10
2021,08,09,13,07,11.30
2021,08,09,13,08,9.60
2021,08,09,13,09,8.10
2021,08,09,13,10,4.80
2021,08,09,13,11,6.40
2021,08,09,13,12,4.80
2021,08,09,13,13,9.60
2021,08,09,13,14,9.60
2021,08,09,13,15,8.10
2021,08,09,13,16,9.60
2021,08,09,13,17,11.30
2021,08,09,13,18,8.10
2021,08,09,13,19,11.30
2021,08,09,13,20,11.30
2021,08,09,13,21,12.90
2021,08,09,13,22,14.50
2021,08,09,13,23,11.30
2021,08,09,13,24,9.60
2021,08,09,13,25,8.10
2021,08,09,13,26,9.60
2021,08,09,13,27,12.90
2021,08,09,13,28,11.30
2021,08,09,13,29,12.90
2021,08,09,13,30,12.90
2021,08,09,13,31,9.60
2021,08,09,13,32,11.30
2021,08,09,13,33,9.60
2021,08,09,13,34,9.60
2021,08,09,13,35,11.30
2021,08,09,13,36,11.30
2021,08,09,13,37,9.60
2021,08,09,13,38,11.30
2021,08,09,13,39,9.60
2021,08,09,13,40,9.60
2021,08,09,13,41,12.90
2021,08,09,13,42,8.10
2021,08,09,13,43,8.10
2021,08,09,13,44,12.90
2021,08,09,13,45,12.90
2021,08,09,13,46,8.10
2021,08,09,13,47,8.10
2021,08,09,13,48,8.10
2021,08,09,13,49,8.10
2021,08,09,13,50,8.10
2021,08,09,13,51,14.50
2021,08,09,13,52,9.60
2021,08,09,13,53,11.30
2021,08,09,13,54,8.10
2021,08,09,13,55,9.60
2021,08,09,13,56,9.60
2021,08,09,13,57,9.60
2021,08,09,13,58,6.40
2021,08,09,13,59,8.10
2021,08,09,14,00,11.30
2021,08,09,14,01,12.90
2021,08,09,14,02,8.10
2021,08,09,14,03,6.40
2021,08,09,14,04,8.10
2021,08,09,14,05,11.30
2021,08,09,14,06,4.80
2021,08,09,14,07,14.50
2021,08,09,14,08,6.40
2021,08,09,14,09,11.30
2021,08,09,14,10,8.10
2021,08,09,14,11,8.10
2021,08,09,14,12,11.30
2021,08,09,14,13,9.60
2021,08,09,14,14,9.60
2021,08,09,14,15,11.30
2021,08,09,14,16,9.60
2021,08,09,14,17,11.30
2021,08,09,14,18,9.60
2021,08,09,14,19,9.60
2021,08,09,14,20,9.60
2021,08,09,14,21,6.40
2021,08,09,14,22,8.10
2021,08,09,14,23,12.90
2021,08,09,14,24,8.10
2021,08,09,14,25,8.10
2021,08,09,14,26,8.10
2021,08,09,14,27,9.60
2021,08,09,14,28,8.10
2021,08,09,14,29,9.60
2021,08,09,14,30,9.60
2021,08,09,14,31,12.90
2021,08,09,14,32,6.40
2021,08,09,14,33,8.10
2021,08,09,14,34,8.10
2021,08,09,14,35,4.80
2021,08,09,14,36,11.30
2021,08,09,14,37,9.60
2021,08,09,14,38,8.10
2021,08,09,14,39,8.10
2021,08,09,14,40,8.10
2021,08,09,14,41,8.10
2021,08,09,14,42,8.10
2021,08,09,14,43,4.80
2021,08,09,14,44,6.40
2021,08,09,14,45,4.80
2021,08,09,14,46,9.60
2021,08,09,14,47,6.40
2021,08,09,14,48,8.10
2021,08,09,14,49,8.10
2021,08,09,14,50,11.30
2021,08,09,14,51,8.10
2021,08,09,14,52,11.30
2021,08,09,14,53,8.10
2021,08,09,14,54,9.60
2021,08,09,14,55,6.40
2021,08,09,14,56,11.30
2021,08,09,14,57,6.40
2021,08,09,14,58,6.40
2021,08,09,14,59,8.10
2021,08,09,15,00,9.60
2021,08,09,15,01,9.60
2021,08,09,15,02,9.60
2021,08,09,15,03,11.30
2021,08,09,15,04,11.30
2021,08,09,15,05,11.30
2021,08,09,15,06,11.30
2021,08,09,15,07,9.60
2021,08,09,15,08,12.90
2021,08,09,15,09,12.90
2021,08,09,15,10,11.30
2021,08,09,15,11,9.60
2021,08,09,15,12,9.60
2021,08,09,15,13,11.30
2021,08,09,15,14,8.10
2021,08,09,15,15,9.60
2021,08,09,15,16,8.10
2021,08,09,15,17,9.60
2021,08,09,15,18,9.60
2021,08,09,15,19,9.60
2021,08,09,15,20,9.60
2021,08,09,15,21,9.60
2021,08,09,15,22,8.10
2021,08,09,15,23,8.10
2021,08,09,15,24,8.10
2021,08,09,15,25,11.30
2021,08,09,15,26,14.50
2021,08,09,15,27,9.60
2021,08,09,15,28,9.60
2021,08,09,15,29,11.30
2021,08,09,15,30,11.30
2021,08,09,15,31,11.30
2021,08,09,15,32,8.10
2021,08,09,15,33,8.10
2021,08,09,15,34,8.10
2021,08,09,15,35,12.90
2021,08,09,15,36,11.30
2021,08,09,15,37,11.30
2021,08,09,15,38,11.30
2021,08,09,15,39,9.60
2021,08,09,15,40,9.60
2021,08,09,15,41,8.10
2021,08,09,15,42,12.90
2021,08,09,15,43,8.10
2021,08,09,15,44,12.90
2021,08,09,15,45,9.60
2021,08,09,15,46,11.30
2021,08,09,15,47,12.90
2021,08,09,15,48,8.10
2021,08,09,15,49,9.60
2021,08,09,15,50,9.60
2021,08,09,15,51,9.60
2021,08,09,15,52,9.60
2021,08,09,15,53,8.10
2021,08,09,15,54,6.40
2021,08,09,15,55,9.60
2021,08,09,15,56,6.40
2021,08,09,15,57,12.90
2021,08,09,15,58,8.10
2021,08,09,15,59,6.40
2021,08,09,16,00,14.50
2021,08,09,16,01,11.30
2021,08,09,16,02,8.10
2021,08,09,16,03,12.90
2021,08,09,16,04,14.50
2021,08,09,16,05,9.60
2021,08,09,16,06,9.60
2021,08,09,16,07,9.60
2021,08,09,16,08,11.30
2021,08,09,16,09,9.60
2021,08,09,16,10,8.10
2021,08,09,16,11,8.10
2021,08,09,16,12,8.10
2021,08,09,16,13,11.30
2021,08,09,16,14,9.60
2021,08,09,16,15,11.30
2021,08,09,16,16,9.60
2021,08,09,16,17,12.90
2021,08,09,16,18,6.40
2021,08,09,16,19,11.30
2021,08,09,16,20,6.40
2021,08,09,16,21,6.40
2021,08,09,16,22,6.40
2021,08,09,16,23,9.60
2021,08,09,16,24,9.60
2021,08,09,16,25,8.10
2021,08,09,16,26,6.40
2021,08,09,16,27,6.40
2021,08,09,16,28,8.10
2021,08,09,16,29,8.10
2021,08,09,16,30,6.40
2021,08,09,16,31,8.10
2021,08,09,16,32,8.10
2021,08,09,16,33,11.30
2021,08,09,16,34,8.10
2021,08,09,16,35,9.60
2021,08,09,16,36,8.10
2021,08,09,16,37,4.80
2021,08,09,16,38,8.10
2021,08,09,16,39,4.80
2021,08,09,16,40,4.80
2021,08,09,16,41,6.40
2021,08,09,16,42,9.60
2021,08,09,16,43,8.10
2021,08,09,16,44,6.40
2021,08,09,16,45,8.10
2021,08,09,16,46,3.20
2021,08,09,16,47,9.60
2021,08,09,16,48,12.90
2021,08,09,16,49,9.60
2021,08,09,16,50,11.30
2021,08,09,16,51,11.30
2021,08,09,16,52,9.60
2021,08,09,16,53,8.10
2021,08,09,16,54,11.30
2021,08,09,16,55,9.60
2021,08,09,16,56,8.10
2021,08,09,16,57,9.60
2021,08,09,16,58,9.60
2021,08,09,16,59,11.30
2021,08,09,17,00,11.30
2021,08,09,17,01,9.60
2021,08,09,17,02,9.60
2021,08,09,17,03,11.30
2021,08,09,17,04,11.30
2021,08,09,17,05,11.30
2021,08,09,17,06,9.60
2021,08,09,17,07,8.10
2021,08,09,17,08,9.60
2021,08,09,17,09,11.30
2021,08,09,17,10,9.60
2021,08,09,17,11,9.60
2021,08,09,17,12,8.10
2021,08,09,17,13,12.90
2021,08,09,17,14,8.10
2021,08,09,17,15,11.30
2021,08,09,17,16,11.30
2021,08,09,17,17,6.40
2021,08,09,17,18,3.20
2021,08,09,17,19,3.20
2021,08,09,17,20,12.90
2021,08,09,17,21,6.40
2021,08,09,17,22,6.40
2021,08,09,17,23,6.40
2021,08,09,17,24,12.90
2021,08,09,17,25,3.20
2021,08,09,17,26,6.40
2021,08,09,17,27,3.20
2021,08,09,17,28,6.40
2021,08,09,17,29,9.60
2021,08,09,17,30,11.30
2021,08,09,17,31,11.30
2021,08,09,17,32,9.60
2021,08,09,17,33,8.10
2021,08,09,17,34,11.30
2021,08,09,17,35,9.60
2021,08,09,17,36,11.30
2021,08,09,17,37,9.60
2021,08,09,17,38,4.80
2021,08,09,17,39,8.10
2021,08,09,17,40,6.40
2021,08,09,17,41,9.60
2021,08,09,17,42,6.40
2021,08,09,17,43,8.10
2021,08,09,17,44,9.60
2021,08,09,17,45,9.60
2021,08,09,17,46,4.80
2021,08,09,17,47,11.30
2021,08,09,17,48,8.10
2021,08,09,17,49,4.80
2021,08,09,17,50,6.40
2021,08,09,17,51,8.10
2021,08,09,17,52,6.40
2021,08,09,17,53,6.40
2021,08,09,17,54,8.10
2021,08,09,17,55,6.40
2021,08,09,17,56,6.40
2021,08,09,17,57,12.90
2021,08,09,17,58,8.10
2021,08,09,17,59,6.40
2021,08,09,18,00,6.40
2021,08,09,18,01,11.30
2021,08,09,18,02,6.40
2021,08,09,18,03,9.60
2021,08,09,18,04,11.30
2021,08,09,18,05,11.30
2021,08,09,18,06,9.60
2021,08,09,18,07,11.30
2021,08,09,18,08,11.30
2021,08,09,18,09,12.90
2021,08,09,18,10,11.30
2021,08,09,18,11,9.60
2021,08,09,18,12,9.60
2021,08,09,18,13,8.10
2021,08,09,18,14,6.40
2021,08,09,18,15,8.10
2021,08,09,18,16,9.60
2021,08,09,18,17,12.90
2021,08,09,18,18,9.60
2021,08,09,18,19,11.30
2021,08,09,18,20,16.10
2021,08,09,18,21,12.90
2021,08,09,18,22,16.10
2021,08,09,18,23,11.30
2021,08,09,18,24,12.90
2021,08,09,18,25,19.30
2021,08,09,18,26,12.90
2021,08,09,18,27,11.30
2021,08,09,18,28,11.30
2021,08,09,18,29,8.10
2021,08,09,18,30,9.60
2021,08,09,18,31,6.40
2021,08,09,18,32,9.60
2021,08,09,18,33,6.40
2021,08,09,18,34,6.40
2021,08,09,18,35,11.30
2021,08,09,18,36,11.30
2021,08,09,18,37,9.60
2021,08,09,18,38,6.40
2021,08,09,18,39,12.90
2021,08,09,18,40,12.90
2021,08,09,18,41,8.10
2021,08,09,18,42,1.60
2021,08,09,18,43,6.40
2021,08,09,18,44,6.40
2021,08,09,18,45,8.10
2021,08,09,18,46,3.20
2021,08,09,18,47,4.80
2021,08,09,18,48,4.80
2021,08,09,18,50,4.80
2021,08,09,18,51,4.80
2021,08,09,18,52,6.40
2021,08,09,18,53,9.60
2021,08,09,18,54,6.40
2021,08,09,18,55,4.80
2021,08,09,18,56,3.20
2021,08,09,18,57,6.40
2021,08,09,18,58,6.40
2021,08,09,18,59,1.60
2021,08,09,19,00,3.20
2021,08,09,19,01,3.20
2021,08,09,19,02,3.20
2021,08,09,19,03,3.20
2021,08,09,19,04,4.80
2021,08,09,19,05,4.80
2021,08,09,19,06,6.40
2021,08,09,19,07,6.40
2021,08,09,19,08,3.20
2021,08,09,19,09,6.40
2021,08,09,19,10,11.30
2021,08,09,19,11,8.10
2021,08,09,19,12,12.90
2021,08,09,19,13,8.10
2021,08,09,19,14,4.80
2021,08,09,19,15,6.40
2021,08,09,19,16,8.10
2021,08,09,19,17,11.30
2021,08,09,19,18,8.10
2021,08,09,19,19,14.50
2021,08,09,19,20,8.10
2021,08,09,19,21,8.10
2021,08,09,19,22,8.10
2021,08,09,19,23,8.10
2021,08,09,19,24,4.80
2021,08,09,19,25,9.60
2021,08,09,19,26,11.30
2021,08,09,19,27,12.90
2021,08,09,19,28,6.40
2021,08,09,19,29,11.30
2021,08,09,19,30,8.10
2021,08,09,19,31,8.10
2021,08,09,19,32,11.30
2021,08,09,19,33,8.10
2021,08,09,19,34,4.80
2021,08,09,19,35,4.80
2021,08,09,19,36,6.40
2021,08,09,19,37,4.80
2021,08,09,19,38,6.40
2021,08,09,19,39,4.80
2021,08,09,19,40,6.40
2021,08,09,19,41,4.80
2021,08,09,19,42,8.10
2021,08,09,19,43,6.40
2021,08,09,19,44,6.40
2021,08,09,19,45,8.10
2021,08,09,19,46,8.10
2021,08,09,19,47,8.10
2021,08,09,19,48,6.40
2021,08,09,19,49,8.10
2021,08,09,19,50,9.60
2021,08,09,19,51,9.60
2021,08,09,19,52,8.10
2021,08,09,19,53,8.10
2021,08,09,19,54,8.10
2021,08,09,19,55,6.40
2021,08,09,19,56,8.10
2021,08,09,19,57,11.30
2021,08,09,19,58,12.90
2021,08,09,19,59,8.10
2021,08,09,20,00,8.10
2021,08,09,20,01,4.80
2021,08,09,20,02,6.40
2021,08,09,20,03,6.40
2021,08,09,20,04,3.20
2021,08,09,20,05,6.40
2021,08,09,20,06,9.60
2021,08,09,20,07,11.30
2021,08,09,20,08,6.40
2021,08,09,20,09,6.40
2021,08,09,20,10,8.10
2021,08,09,20,11,8.10
2021,08,09,20,12,8.10
2021,08,09,20,13,6.40
2021,08,09,20,14,8.10
2021,08,09,20,15,6.40
2021,08,09,20,16,8.10
2021,08,09,20,17,8.10
2021,08,09,20,18,12.90
2021,08,09,20,19,14.50
2021,08,09,20,20,9.60
2021,08,09,20,21,8.10
2021,08,09,20,22,8.10
2021,08,09,20,23,8.10
2021,08,09,20,24,9.60
2021,08,09,20,25,4.80
2021,08,09,20,26,4.80
2021,08,09,20,27,9.60
2021,08,09,20,28,8.10
2021,08,09,20,29,11.30
2021,08,09,20,30,8.10
2021,08,09,20,31,11.30
2021,08,09,20,32,9.60
2021,08,09,20,33,6.40
2021,08,09,20,34,8.10
2021,08,09,20,35,6.40
2021,08,09,20,36,9.60
2021,08,09,20,37,8.10
2021,08,09,20,38,8.10
2021,08,09,20,39,11.30
2021,08,09,20,40,8.10
2021,08,09,20,41,6.40
2021,08,09,20,42,6.40
2021,08,09,20,43,6.40
2021,08,09,20,44,6.40
2021,08,09,20,45,8.10
2021,08,09,20,46,8.10
2021,08,09,20,47,6.40
2021,08,09,20,48,9.60
2021,08,09,20,49,9.60
2021,08,09,20,50,9.60
2021,08,09,20,51,8.10
2021,08,09,20,52,1.60
2021,08,09,20,53,6.40
2021,08,09,20,54,6.40
2021,08,09,20,55,6.40
2021,08,09,20,56,4.80
2021,08,09,20,57,6.40
2021,08,09,20,58,4.80
2021,08,09,20,59,8.10
2021,08,09,21,00,8.10
2021,08,09,21,01,6.40
2021,08,09,21,02,8.10
2021,08,09,21,03,8.10
2021,08,09,21,04,6.40
2021,08,09,21,05,8.10
2021,08,09,21,06,4.80
2021,08,09,21,07,4.80
2021,08,09,21,08,6.40
2021,08,09,21,09,6.40
2021,08,09,21,10,3.20
2021,08,09,21,11,3.20
2021,08,09,21,12,3.20
2021,08,09,21,13,4.80
2021,08,09,21,14,4.80
2021,08,09,21,15,6.40
2021,08,09,21,16,4.80
2021,08,09,21,17,4.80
2021,08,09,21,18,6.40
2021,08,09,21,19,4.80
2021,08,09,21,20,4.80
2021,08,09,21,21,4.80
2021,08,09,21,22,8.10
2021,08,09,21,23,6.40
2021,08,09,21,24,6.40
2021,08,09,21,25,6.40
2021,08,09,21,26,3.20
2021,08,09,21,27,4.80
2021,08,09,21,28,1.60
2021,08,09,21,29,1.60
2021,08,09,21,31,3.20
2021,08,09,21,32,3.20
2021,08,09,21,33,3.20
2021,08,09,21,34,3.20
2021,08,09,21,35,1.60
2021,08,09,21,37,1.60
2021,08,09,21,38,4.80
2021,08,09,21,39,4.80
2021,08,09,21,41,1.60
2021,08,09,21,42,1.60
2021,08,09,21,44,1.60
2021,08,09,21,45,1.60
2021,08,09,21,46,4.80
2021,08,09,21,47,4.80
2021,08,09,21,48,4.80
2021,08,09,21,52,1.60
2021,08,09,21,53,3.20
2021,08,09,21,55,1.60
2021,08,09,23,01,1.60
2021,08,09,23,02,1.60
2021,08,09,23,10,3.20
2021,08,09,23,11,1.60
2021,08,09,23,14,4.80
2021,08,09,23,15,1.60
2021,08,09,23,19,1.60
2021,08,09,23,20,1.60
2021,08,09,23,23,3.20
2021,08,09,23,24,3.20
2021,08,09,23,25,1.60
2021,08,09,23,27,1.60
2021,08,09,23,28,3.20
2021,08,09,23,31,1.60
2021,08,09,23,32,3.20
2021,08,09,23,33,4.80
2021,08,09,23,34,3.20
2021,08,09,23,35,3.20
2021,08,09,23,36,1.60
2021,08,09,23,37,3.20
2021,08,09,23,39,1.60
2021,08,09,23,40,1.60
2021,08,09,23,51,3.20
2021,08,09,23,52,4.80
2021,08,09,23,53,4.80
2021,08,09,23,54,4.80
2021,08,09,23,55,3.20
2021,08,09,23,56,3.20
2021,08,09,23,57,3.20
2021,08,09,23,58,3.20
2021,08,09,23,59,1.60
